CW2157 Weather Reports


Display with metric or nautical units.
time (UTC)temp
F
wind
direction
speed
MPH
gust
MPH
rain 1hr
in
rain 24hr
in
rain mn
in
humidity
%
barometer
mb
20260901224705 87 198 8.0 10.0 0.00 0.00 0.00 74 1012.1
20260901224205 87 204 8.0 12.0 0.00 0.00 0.00 73 1012.0
20260901223205 88 197 7.0 12.0 0.00 0.00 0.00 74 1012.0
20260901222705 88 207 9.0 12.0 0.00 0.00 0.00 73 1012.1
20260901222205 88 201 9.0 13.0 0.00 0.00 0.00 72 1012.0
20260901221705 88 198 7.0 12.0 0.00 0.00 0.00 72 1012.0
20260901221205 88 210 8.0 12.0 0.00 0.00 0.00 72 1012.2
20260901220206 89 207 8.0 12.0 0.00 0.00 0.00 71 1012.3
20260901215705 89 195 7.0 12.0 0.00 0.00 0.00 70 1012.2
20260901215205 89 187 7.0 10.0 0.00 0.00 0.00 69 1012.2
20260901214705 89 197 7.0 12.0 0.00 0.00 0.00 69 1012.3
20260901214205 90 193 6.0 9.0 0.00 0.00 0.00 69 1012.5
20260901213705 90 192 7.0 10.0 0.00 0.00 0.00 69 1012.5
20260901213205 90 197 7.0 12.0 0.00 0.00 0.00 67 1012.4
20260901212705 91 200 7.0 10.0 0.00 0.00 0.00 66 1012.4
20260901212205 91 189 7.0 12.0 0.00 0.00 0.00 67 1012.5
20260901211205 92 192 9.0 12.0 0.00 0.00 0.00 65 1012.6
20260901210705 92 198 6.0 10.0 0.00 0.00 0.00 64 1012.6
20260901210205 93 195 7.0 12.0 0.00 0.00 0.00 63 1012.6
20260901205705 93 193 8.0 12.0 0.00 0.00 0.00 63 1012.7
20260901205206 93 188 7.0 10.0 0.00 0.00 0.00 63 1012.7
20260901204705 94 196 7.0 10.0 0.00 0.00 0.00 65 1012.7
20260901204205 93 181 7.0 12.0 0.00 0.00 0.00 65 1012.7
20260901203205 93 196 5.0 9.0 0.00 0.00 0.00 66 1012.7
20260901202705 93 205 6.0 9.0 0.00 0.00 0.00 67 1012.7
20260901201705 93 204 7.0 9.0 0.00 0.00 0.00 67 1012.9
20260901201205 92 201 6.0 8.0 0.00 0.00 0.00 67 1012.9
20260901200705 93 209 6.0 12.0 0.00 0.00 0.00 67 1012.9
20260901200205 93 188 6.0 10.0 0.00 0.00 0.00 64 1012.9
20260901195704 93 198 7.0 10.0 0.00 0.00 0.00 65 1013.0
20260901195205 93 184 6.0 9.0 0.00 0.00 0.00 64 1013.1
20260901194705 93 208 6.0 9.0 0.00 0.00 0.00 67 1013.2
20260901193705 93 201 5.0 6.0 0.00 0.00 0.00 66 1013.3
20260901193205 93 200 5.0 8.0 0.00 0.00 0.00 67 1013.4
20260901192705 92 213 6.0 9.0 0.00 0.00 0.00 67 1013.4
20260901192205 92 203 7.0 9.0 0.00 0.00 0.00 67 1013.4
20260901191205 92 205 5.0 8.0 0.00 0.00 0.00 71 1013.4
20260901190205 91 210 7.0 10.0 0.00 0.00 0.00 69 1013.4
20260901185706 91 197 5.0 8.0 0.00 0.00 0.00 69 1013.5
20260901184705 90 207 5.0 7.0 0.00 0.00 0.00 72 1013.4
20260901184205 90 182 5.0 9.0 0.00 0.00 0.00 71 1013.4
20260901183705 89 209 6.0 8.0 0.00 0.00 0.00 73 1013.5
20260901182705 89 187 5.0 7.0 0.00 0.00 0.00 74 1013.6
20260901182205 90 192 5.0 7.0 0.00 0.00 0.00 73 1013.6
20260901181704 90 190 5.0 6.0 0.00 0.00 0.00 72 1013.6
20260901180205 91 189 5.0 8.0 0.00 0.00 0.00 70 1013.6
20260901175705 91 186 5.0 8.0 0.00 0.00 0.00 70 1013.6
20260901175205 91 188 5.0 7.0 0.00 0.00 0.00 68 1013.7
20260901174705 92 187 3.0 6.0 0.00 0.00 0.00 70 1013.6
20260901174205 92 179 2.0 7.0 0.00 0.00 0.00 65 1013.6
20260901173705 92 205 5.0 7.0 0.00 0.00 0.00 68 1013.7
20260901173205 92 232 5.0 7.0 0.00 0.00 0.00 70 1013.8
20260901172705 92 209 6.0 8.0 0.00 0.00 0.00 67 1013.9
20260901172205 92 190 4.0 9.0 0.00 0.00 0.00 71 1013.9
20260901171705 91 181 6.0 9.0 0.00 0.00 0.00 71 1013.8
20260901171205 91 174 6.0 10.0 0.00 0.00 0.00 71 1013.8
20260901170705 91 197 5.0 9.0 0.00 0.00 0.00 71 1013.8
20260901170205 91 204 6.0 9.0 0.00 0.00 0.00 71 1013.8
20260901165705 90 187 7.0 8.0 0.00 0.00 0.00 71 1013.9
20260901165205 90 192 6.0 8.0 0.00 0.00 0.00 72 1013.9
20260901164705 91 193 6.0 8.0 0.00 0.00 0.00 71 1013.9
20260901164205 91 191 5.0 9.0 0.00 0.00 0.00 69 1014.1
20260901163704 91 194 5.0 8.0 0.00 0.00 0.00 68 1014.1
20260901163205 91 192 5.0 7.0 0.00 0.00 0.00 68 1014.2
20260901162705 91 236 5.0 8.0 0.00 0.00 0.00 66 1014.2
20260901162205 91 234 8.0 9.0 0.00 0.00 0.00 66 1014.3
20260901161704 91 230 6.0 8.0 0.00 0.00 0.00 65 1014.4
20260901161205 91 231 6.0 8.0 0.00 0.00 0.00 69 1014.5
20260901160705 91 208 6.0 9.0 0.00 0.00 0.00 68 1014.5
20260901160205 91 224 6.0 9.0 0.00 0.00 0.00 67 1014.5
20260901155705 91 226 5.0 9.0 0.00 0.00 0.00 67 1014.6
20260901154705 90 224 5.0 9.0 0.00 0.00 0.00 69 1014.7
20260901153705 90 229 6.0 8.0 0.00 0.00 0.00 72 1014.6
20260901153205 90 229 4.0 8.0 0.00 0.00 0.00 70 1014.8
20260901152705 89 244 7.0 9.0 0.00 0.00 0.00 74 1014.8
20260901152205 89 219 4.0 6.0 0.00 0.00 0.00 70 1014.9
20260901151705 88 245 5.0 7.0 0.00 0.00 0.00 72 1015.0
20260901151205 88 233 5.0 9.0 0.00 0.00 0.00 71 1015.1
20260901150705 88 229 5.0 8.0 0.00 0.00 0.00 75 1015.1
20260901150205 88 236 6.0 9.0 0.00 0.00 0.00 75 1015.1
20260901145205 87 235 5.0 7.0 0.00 0.00 0.00 76 1015.0
20260901144705 87 226 6.0 8.0 0.00 0.00 0.00 75 1015.0
20260901144205 87 234 4.0 6.0 0.00 0.00 0.00 72 1015.0
20260901143705 87 228 4.0 7.0 0.00 0.00 0.00 72 1015.0
20260901143204 87 233 5.0 9.0 0.00 0.00 0.00 72 1014.9
20260901142705 87 228 6.0 10.0 0.00 0.00 0.00 73 1015.0
20260901142205 87 221 2.0 6.0 0.00 0.00 0.00 73 1015.0
20260901141205 87 235 6.0 7.0 0.00 0.00 0.00 74 1014.9
20260901140705 87 236 6.0 10.0 0.00 0.00 0.00 72 1014.8
20260901140205 87 228 5.0 8.0 0.00 0.00 0.00 72 1014.9
20260901135704 87 230 3.0 9.0 0.00 0.00 0.00 73 1014.9
20260901135205 87 228 8.0 12.0 0.00 0.00 0.00 74 1015.0
20260901134206 86 222 6.0 9.0 0.00 0.00 0.00 74 1015.1
20260901133705 86 230 6.0 10.0 0.00 0.00 0.00 77 1015.1
20260901132705 85 226 4.0 9.0 0.00 0.00 0.00 77 1015.4
20260901132205 85 258 6.0 10.0 0.00 0.00 0.00 77 1015.3
20260901131205 84 233 4.0 8.0 0.00 0.00 0.00 80 1015.4
20260901130705 83 232 5.0 9.0 0.00 0.00 0.00 82 1015.4
20260901130205 83 227 4.0 9.0 0.00 0.00 0.00 85 1015.4
20260901125705 82 235 5.0 6.0 0.00 0.00 0.00 86 1015.4
20260901125205 82 223 3.0 6.0 0.00 0.00 0.00 86 1015.3
20260901124705 81 219 4.0 5.0 0.00 0.00 0.00 87 1015.3
20260901123705 80 225 4.0 6.0 0.00 0.00 0.00 91 1015.3
20260901123204 79 229 6.0 7.0 0.00 0.00 0.00 92 1015.2
20260901122705 79 224 6.0 7.0 0.00 0.00 0.00 93 1015.4
20260901122205 78 226 6.0 7.0 0.00 0.00 0.00 94 1015.3
20260901121705 78 230 5.0 7.0 0.00 0.00 0.00 95 1015.4
20260901120705 78 217 5.0 7.0 0.00 0.00 0.00 95 1015.3
20260901120204 77 217 5.0 6.0 0.00 0.00 0.00 95 1015.2
20260901115205 76 213 5.0 6.0 0.00 0.00 0.00 95 1015.3
20260901114705 76 219 4.0 5.0 0.00 0.00 0.00 94 1015.4
20260901114205 75 192 3.0 3.0 0.00 0.00 0.00 94 1015.4
20260901113704 75 171 1.0 3.0 0.00 0.00 0.00 94 1015.4
20260901113205 75 171 2.0 2.0 0.00 0.00 0.00 94 1015.3
20260901112704 75 202 1.0 2.0 0.00 0.00 0.00 94 1015.2
20260901112205 75 202 1.0 3.0 0.00 0.00 0.00 94 1015.2
20260901111705 75 224 1.0 3.0 0.00 0.00 0.00 94 1015.2
20260901110705 74 145 0.0 0.0 0.00 0.00 0.00 93 1015.3
20260901110205 74 145 0.0 1.0 0.00 0.00 0.00 93 1015.3
20260901105704 74 145 0.0 0.0 0.00 0.00 0.00 93 1015.4
20260901104705 74 145 0.0 0.0 0.00 0.00 0.00 93 1015.2
20260901104204 74 145 0.0 1.0 0.00 0.00 0.00 93 1015.1
20260901103705 74 145 0.0 0.0 0.00 0.00 0.00 93 1014.9
20260901103205 75 145 0.0 1.0 0.00 0.00 0.00 93 1014.8
20260901102705 74 145 0.0 1.0 0.00 0.00 0.00 93 1014.8
20260901102204 74 145 0.0 1.0 0.00 0.00 0.00 93 1014.8
20260901101705 74 145 1.0 2.0 0.00 0.00 0.00 93 1014.7
20260901101205 74 145 0.0 1.0 0.00 0.00 0.00 92 1014.7
20260901100705 74 145 0.0 1.0 0.00 0.00 0.00 92 1014.8
20260901100205 75 145 1.0 2.0 0.00 0.00 0.00 92 1014.9
20260901095705 75 145 1.0 3.0 0.00 0.00 0.00 92 1015.0
20260901095205 75 66 1.0 2.0 0.00 0.00 0.00 92 1015.0
20260901094704 75 113 0.0 3.0 0.00 0.00 0.00 93 1015.0
20260901094205 75 217 0.0 3.0 0.00 0.00 0.00 92 1014.9
20260901093705 75 237 1.0 3.0 0.00 0.00 0.00 92 1014.9
20260901093205 75 248 1.0 3.0 0.00 0.00 0.00 92 1014.9
20260901092705 75 233 0.0 2.0 0.00 0.00 0.00 92 1015.0
20260901092205 75 271 0.0 1.0 0.00 0.00 0.00 92 1015.0
20260901091705 75 266 3.0 6.0 0.00 0.00 0.00 92 1015.0
20260901091205 75 231 0.0 1.0 0.00 0.00 0.00 92 1015.0
20260901090705 75 270 0.0 1.0 0.00 0.00 0.00 92 1015.0
20260901090204 75 270 1.0 6.0 0.00 0.00 0.00 92 1014.9
20260901085705 76 227 2.0 5.0 0.00 0.00 0.00 92 1014.8
20260901084205 76 208 0.0 1.0 0.00 0.00 0.00 92 1015.0
20260901083704 76 208 0.0 1.0 0.00 0.00 0.00 92 1015.0
20260901082705 76 213 2.0 3.0 0.00 0.00 0.00 92 1014.8
20260901082205 76 230 3.0 5.0 0.00 0.00 0.00 92 1014.8
20260901081705 76 232 2.0 5.0 0.00 0.00 0.00 92 1014.9
20260901080705 76 286 3.0 6.0 0.00 0.00 0.00 92 1015.1
20260901080205 76 241 3.0 7.0 0.00 0.00 0.00 93 1015.0
20260901075205 77 236 4.0 6.0 0.00 0.00 0.00 93 1015.1
20260901074705 77 237 4.0 6.0 0.00 0.00 0.00 93 1015.1
20260901074205 77 214 0.0 2.0 0.00 0.00 0.00 93 1015.1
20260901072705 77 237 1.0 2.0 0.00 0.00 0.00 93 1015.1
20260901072205 77 257 2.0 3.0 0.00 0.00 0.00 93 1015.2
20260901071704 77 250 0.0 2.0 0.00 0.00 0.00 93 1015.2
20260901071204 77 322 0.0 3.0 0.00 0.00 0.00 93 1015.2
20260901070705 77 238 1.0 3.0 0.00 0.00 0.00 93 1015.2
20260901070205 76 245 1.0 3.0 0.00 0.00 0.00 93 1015.3
20260901065704 76 258 0.0 1.0 0.00 0.00 0.00 93 1015.3
20260901065205 76 257 3.0 5.0 0.00 0.00 0.00 93 1015.3
20260901064705 76 209 5.0 6.0 0.00 0.00 0.00 92 1015.3
20260901063705 76 196 3.0 3.0 0.00 0.00 0.00 92 1015.3
20260901063205 76 146 0.0 2.0 0.00 0.00 0.00 92 1015.4
20260901062704 76 146 0.0 1.0 0.00 0.00 0.00 91 1015.3
20260901062205 76 146 0.0 1.0 0.00 0.00 0.00 91 1015.3
20260901061705 76 146 0.0 1.0 0.00 0.00 0.00 91 1015.4
20260901061205 76 146 0.0 1.0 0.00 0.00 0.00 91 1015.4
20260901060704 76 146 0.0 0.0 0.00 0.00 0.00 91 1015.5
20260901060205 76 146 0.0 1.0 0.00 0.00 0.00 91 1015.5
20260901055705 76 146 1.0 2.0 0.00 0.00 0.00 91 1015.5
20260901055204 76 146 1.0 2.0 0.00 0.00 0.00 91 1015.6
20260901054704 76 146 0.0 1.0 0.00 0.00 0.00 90 1015.7
20260901054204 76 146 0.0 2.0 0.00 0.00 0.00 90 1015.7
20260901053705 76 146 1.0 2.0 0.00 0.00 0.00 90 1015.9
20260901053205 76 146 0.0 1.0 0.00 0.00 0.00 90 1015.9
20260901052704 76 146 0.0 2.0 0.00 0.00 0.00 89 1015.8
20260901052205 76 146 1.0 2.0 0.00 0.00 0.00 89 1016.0
20260901051705 76 146 1.0 2.0 0.00 0.00 0.00 89 1015.9
20260901051204 76 146 1.0 2.0 0.00 0.00 0.00 89 1015.9
20260901050705 76 146 1.0 2.0 0.00 0.00 0.00 89 1016.1
20260901050204 76 146 0.0 0.0 0.00 0.00 0.00 89 1016.3
20260901045705 76 146 0.0 0.0 0.00 0.00 0.00 89 1016.4
20260901045204 77 146 0.0 0.0 0.00 0.00 0.00 88 1016.3
20260901044705 77 146 1.0 2.0 0.00 0.00 0.00 88 1016.3
20260901044204 77 146 1.0 2.0 0.00 0.00 0.00 88 1016.4
20260901043205 77 146 1.0 2.0 0.00 0.00 0.00 88 1016.4
20260901042705 77 146 1.0 2.0 0.00 0.00 0.00 88 1016.5
20260901042205 77 146 1.0 2.0 0.00 0.00 0.00 88 1016.4
20260901041704 77 146 1.0 2.0 0.00 0.00 0.00 87 1016.4
20260901041205 77 146 1.0 2.0 0.00 0.00 0.00 87 1016.4
20260901040705 77 146 1.0 2.0 0.00 0.00 0.00 87 1016.4
20260901040204 77 146 1.0 3.0 0.00 0.00 0.00 87 1016.5
20260901035705 78 146 2.0 3.0 0.00 0.00 0.00 87 1016.5
20260901035204 78 169 1.0 3.0 0.00 0.00 0.00 87 1016.5
20260901034705 78 166 1.0 2.0 0.00 0.00 0.00 87 1016.4
20260901034204 78 166 0.0 2.0 0.00 0.00 0.00 87 1016.4
20260901033704 78 136 2.0 3.0 0.00 0.00 0.00 87 1016.4
20260901033204 78 126 1.0 3.0 0.00 0.00 0.00 87 1016.3
20260901032705 78 146 2.0 3.0 0.00 0.00 0.00 87 1016.3
20260901032205 78 153 2.0 5.0 0.00 0.00 0.00 87 1016.3
20260901030705 78 164 3.0 5.0 0.00 0.00 0.00 87 1015.9
20260901030205 78 162 3.0 5.0 0.00 0.00 0.00 86 1015.9
20260901025705 78 174 2.0 5.0 0.00 0.00 0.00 86 1016.0
20260901025205 78 165 3.0 5.0 0.00 0.00 0.00 86 1016.0
20260901024704 78 194 4.0 7.0 0.00 0.00 0.00 86 1016.1
20260901024204 78 183 3.0 8.0 0.00 0.00 0.00 86 1016.0
20260901023705 78 178 3.0 7.0 0.00 0.00 0.00 86 1016.0
20260901023205 78 190 3.0 9.0 0.00 0.00 0.00 86 1016.0
20260901022704 78 172 4.0 6.0 0.00 0.00 0.00 86 1015.9
20260901022204 78 170 4.0 8.0 0.00 0.00 0.00 85 1016.0
20260901021705 78 190 5.0 8.0 0.00 0.00 0.00 85 1016.0
20260901021204 78 191 5.0 8.0 0.00 0.00 0.00 86 1016.0
20260901020705 78 169 4.0 6.0 0.00 0.00 0.00 85 1016.1
20260901020205 78 186 5.0 7.0 0.00 0.00 0.00 85 1016.2
20260901015705 78 167 5.0 8.0 0.00 0.00 0.00 85 1016.3
20260901015204 78 175 5.0 8.0 0.00 0.00 0.00 85 1016.3
20260901014705 78 185 4.0 7.0 0.00 0.00 0.00 85 1016.4
20260901014204 78 163 3.0 7.0 0.00 0.00 0.00 85 1016.5
20260901013705 78 176 5.0 7.0 0.00 0.00 0.00 85 1016.5
20260901013205 78 187 5.0 7.0 0.00 0.00 0.00 85 1016.4
20260901012705 78 178 4.0 9.0 0.00 0.00 0.00 85 1016.4
20260901011204 78 179 3.0 7.0 0.00 0.00 0.00 84 1016.3
20260901010704 78 174 3.0 8.0 0.00 0.00 0.00 85 1016.3
20260901005704 78 139 4.0 9.0 0.00 0.00 0.00 85 1016.3
20260901005204 78 159 5.0 8.0 0.00 0.00 0.00 85 1016.3
20260901004204 79 153 3.0 7.0 0.00 0.00 0.00 84 1016.4
20260901003704 79 172 2.0 6.0 0.00 0.00 0.00 84 1016.4
20260901003204 79 157 3.0 7.0 0.00 0.00 0.00 84 1016.4
20260901002705 79 120 2.0 5.0 0.00 0.00 0.00 84 1016.3
20260901002205 79 137 3.0 7.0 0.00 0.00 0.00 83 1016.2
20260901001705 79 141 2.0 3.0 0.00 0.00 0.00 83 1016.2
20260901001204 79 131 4.0 7.0 0.00 0.00 0.00 83 1016.0
20260901000704 80 168 2.0 6.0 0.00 0.00 0.00 82 1016.1
20260831235205 80 126 3.0 8.0 0.00 0.00 0.00 83 1016.1
20260831234705 80 132 3.0 8.0 0.00 0.00 0.00 83 1016.0
20260831234204 80 125 3.0 6.0 0.00 0.00 0.00 82 1016.2
20260831233704 81 96 4.0 7.0 0.00 0.00 0.00 82 1016.2
20260831233205 81 93 4.0 7.0 0.00 0.00 0.00 84 1016.2
20260831232704 81 106 5.0 13.0 0.00 0.00 0.00 83 1016.3
20260831232204 81 38 2.0 3.0 0.00 0.00 0.00 81 1016.3
20260831231705 82 58 2.0 3.0 0.00 0.00 0.00 81 1016.2
20260831231205 82 100 2.0 3.0 0.00 0.00 0.00 80 1016.3
20260831230705 82 29 0.0 2.0 0.00 0.00 0.00 80 1016.5
20260831230204 82 29 0.0 1.0 0.00 0.00 0.00 81 1016.5
20260831225704 82 29 0.0 1.0 0.00 0.00 0.00 80 1016.5
20260831225205 82 29 1.0 1.0 0.00 0.00 0.00 79 1016.4